Location: Haulchin
(50.3172°N, 3.4360°E)
Time: 01:30:30
(UTC+00:00)

Cosmos 1408 - Pass Details

Date: 23 May 2024
Orbit: 363 x 377 km, 82.6° (Epoch: 16 June)

Event Time Altitude Azimuth Distance (km) Brightness Sun altitude
Exits shadow 01:22:03 12° 132° (SE) 1,242 4.5 -15.7°
Maximum altitude 01:23:50 19° 90° (E) 958 4.3 -15.6°
Drops below altitude 10° 01:26:00 10° 42° (NE) 1,364 6.0 -15.5°
Sets 01:28:19 0° 24° (NNE) 2,219 7.8 -15.3°
